Index of /20260428/WXO-DD/model_rdps/10km/12/044
Name Last modified Size Description
Parent Directory -
20260428T12Z_MSC_RDPS_AbsoluteVorticity_IsbL-0250_RLatLon0.09_PT044H.grib2 2026-04-28 14:53 625K
20260428T12Z_MSC_RDPS_AbsoluteVorticity_IsbL-0500_RLatLon0.09_PT044H.grib2 2026-04-28 14:53 568K
20260428T12Z_MSC_RDPS_AbsoluteVorticity_IsbL-0700_RLatLon0.09_PT044H.grib2 2026-04-28 14:53 618K
20260428T12Z_MSC_RDPS_AbsoluteVorticity_IsbL-0850_RLatLon0.09_PT044H.grib2 2026-04-28 14:53 768K
20260428T12Z_MSC_RDPS_AirTemp_AGL-120m_RLatLon0.09_PT044H.grib2 2026-04-28 14:53 370K
20260428T12Z_MSC_RDPS_AirTemp_AGL-2m_RLatLon0.09_PT044H.grib2 2026-04-28 14:53 626K
20260428T12Z_MSC_RDPS_AirTemp_AGL-40m_RLatLon0.09_PT044H.grib2 2026-04-28 14:53 388K
20260428T12Z_MSC_RDPS_AirTemp_AGL-80m_RLatLon0.09_PT044H.grib2 2026-04-28 14:53 378K
20260428T12Z_MSC_RDPS_AirTemp_IsbL-0001_RLatLon0.09_PT044H.grib2 2026-04-28 14:53 298K
20260428T12Z_MSC_RDPS_AirTemp_IsbL-0005_RLatLon0.09_PT044H.grib2 2026-04-28 14:53 293K
20260428T12Z_MSC_RDPS_AirTemp_IsbL-0010_RLatLon0.09_PT044H.grib2 2026-04-28 14:53 304K
20260428T12Z_MSC_RDPS_AirTemp_IsbL-0020_RLatLon0.09_PT044H.grib2 2026-04-28 14:53 317K
20260428T12Z_MSC_RDPS_AirTemp_IsbL-0030_RLatLon0.09_PT044H.grib2 2026-04-28 14:53 342K
20260428T12Z_MSC_RDPS_AirTemp_IsbL-0050_RLatLon0.09_PT044H.grib2 2026-04-28 14:53 316K
20260428T12Z_MSC_RDPS_AirTemp_IsbL-0100_RLatLon0.09_PT044H.grib2 2026-04-28 14:53 432K
20260428T12Z_MSC_RDPS_AirTemp_IsbL-0150_RLatLon0.09_PT044H.grib2 2026-04-28 14:53 430K
20260428T12Z_MSC_RDPS_AirTemp_IsbL-0175_RLatLon0.09_PT044H.grib2 2026-04-28 14:53 417K
20260428T12Z_MSC_RDPS_AirTemp_IsbL-0200_RLatLon0.09_PT044H.grib2 2026-04-28 14:53 418K
20260428T12Z_MSC_RDPS_AirTemp_IsbL-0225_RLatLon0.09_PT044H.grib2 2026-04-28 14:53 422K
20260428T12Z_MSC_RDPS_AirTemp_IsbL-0250_RLatLon0.09_PT044H.grib2 2026-04-28 14:53 432K
20260428T12Z_MSC_RDPS_AirTemp_IsbL-0275_RLatLon0.09_PT044H.grib2 2026-04-28 14:53 410K
20260428T12Z_MSC_RDPS_AirTemp_IsbL-0300_RLatLon0.09_PT044H.grib2 2026-04-28 14:53 416K
20260428T12Z_MSC_RDPS_AirTemp_IsbL-0350_RLatLon0.09_PT044H.grib2 2026-04-28 14:53 428K
20260428T12Z_MSC_RDPS_AirTemp_IsbL-0400_RLatLon0.09_PT044H.grib2 2026-04-28 14:53 428K
20260428T12Z_MSC_RDPS_AirTemp_IsbL-0450_RLatLon0.09_PT044H.grib2 2026-04-28 14:53 399K
20260428T12Z_MSC_RDPS_AirTemp_IsbL-0500_RLatLon0.09_PT044H.grib2 2026-04-28 14:53 409K
20260428T12Z_MSC_RDPS_AirTemp_IsbL-0550_RLatLon0.09_PT044H.grib2 2026-04-28 14:53 426K
20260428T12Z_MSC_RDPS_AirTemp_IsbL-0600_RLatLon0.09_PT044H.grib2 2026-04-28 14:53 447K
20260428T12Z_MSC_RDPS_AirTemp_IsbL-0650_RLatLon0.09_PT044H.grib2 2026-04-28 14:53 463K
20260428T12Z_MSC_RDPS_AirTemp_IsbL-0700_RLatLon0.09_PT044H.grib2 2026-04-28 14:53 376K
20260428T12Z_MSC_RDPS_AirTemp_IsbL-0750_RLatLon0.09_PT044H.grib2 2026-04-28 14:53 405K
20260428T12Z_MSC_RDPS_AirTemp_IsbL-0800_RLatLon0.09_PT044H.grib2 2026-04-28 14:53 445K
20260428T12Z_MSC_RDPS_AirTemp_IsbL-0850_RLatLon0.09_PT044H.grib2 2026-04-28 14:53 495K
20260428T12Z_MSC_RDPS_AirTemp_IsbL-0875_RLatLon0.09_PT044H.grib2 2026-04-28 14:53 515K
20260428T12Z_MSC_RDPS_AirTemp_IsbL-0900_RLatLon0.09_PT044H.grib2 2026-04-28 14:53 523K
20260428T12Z_MSC_RDPS_AirTemp_IsbL-0925_RLatLon0.09_PT044H.grib2 2026-04-28 14:53 520K
20260428T12Z_MSC_RDPS_AirTemp_IsbL-0950_RLatLon0.09_PT044H.grib2 2026-04-28 14:53 521K
20260428T12Z_MSC_RDPS_AirTemp_IsbL-0970_RLatLon0.09_PT044H.grib2 2026-04-28 14:53 513K
20260428T12Z_MSC_RDPS_AirTemp_IsbL-0985_RLatLon0.09_PT044H.grib2 2026-04-28 14:53 499K
20260428T12Z_MSC_RDPS_AirTemp_IsbL-1000_RLatLon0.09_PT044H.grib2 2026-04-28 14:53 482K
20260428T12Z_MSC_RDPS_AirTemp_IsbL-1015_RLatLon0.09_PT044H.grib2 2026-04-28 14:53 482K
20260428T12Z_MSC_RDPS_Albedo_Sfc_RLatLon0.09_PT044H.grib2 2026-04-28 14:53 161K
20260428T12Z_MSC_RDPS_CAPE_Sfc_RLatLon0.09_PT044H.grib2 2026-04-28 14:53 1.6M
20260428T12Z_MSC_RDPS_CIN_Sfc_RLatLon0.09_PT044H.grib2 2026-04-28 14:53 1.1M
20260428T12Z_MSC_RDPS_CloudWater_EAtm_RLatLon0.09_PT044H.grib2 2026-04-28 14:53 218K
20260428T12Z_MSC_RDPS_ConvectivePrecip-Accum_Sfc_RLatLon0.09_PT044H.grib2 2026-04-28 14:53 1.0M
20260428T12Z_MSC_RDPS_DewPointDepression_AGL-2m_RLatLon0.09_PT044H.grib2 2026-04-28 14:53 390K
20260428T12Z_MSC_RDPS_DewPointDepression_IsbL-0001_RLatLon0.09_PT044H.grib2 2026-04-28 14:53 193
20260428T12Z_MSC_RDPS_DewPointDepression_IsbL-0005_RLatLon0.09_PT044H.grib2 2026-04-28 14:53 193
20260428T12Z_MSC_RDPS_DewPointDepression_IsbL-0010_RLatLon0.09_PT044H.grib2 2026-04-28 14:53 193
20260428T12Z_MSC_RDPS_DewPointDepression_IsbL-0020_RLatLon0.09_PT044H.grib2 2026-04-28 14:53 193
20260428T12Z_MSC_RDPS_DewPointDepression_IsbL-0030_RLatLon0.09_PT044H.grib2 2026-04-28 14:53 193
20260428T12Z_MSC_RDPS_DewPointDepression_IsbL-0050_RLatLon0.09_PT044H.grib2 2026-04-28 14:53 84K
20260428T12Z_MSC_RDPS_DewPointDepression_IsbL-0100_RLatLon0.09_PT044H.grib2 2026-04-28 14:53 131K
20260428T12Z_MSC_RDPS_DewPointDepression_IsbL-0150_RLatLon0.09_PT044H.grib2 2026-04-28 14:53 150K
20260428T12Z_MSC_RDPS_DewPointDepression_IsbL-0175_RLatLon0.09_PT044H.grib2 2026-04-28 14:53 179K
20260428T12Z_MSC_RDPS_DewPointDepression_IsbL-0200_RLatLon0.09_PT044H.grib2 2026-04-28 14:53 217K
20260428T12Z_MSC_RDPS_DewPointDepression_IsbL-0225_RLatLon0.09_PT044H.grib2 2026-04-28 14:53 264K
20260428T12Z_MSC_RDPS_DewPointDepression_IsbL-0250_RLatLon0.09_PT044H.grib2 2026-04-28 14:53 303K
20260428T12Z_MSC_RDPS_DewPointDepression_IsbL-0275_RLatLon0.09_PT044H.grib2 2026-04-28 14:53 308K
20260428T12Z_MSC_RDPS_DewPointDepression_IsbL-0300_RLatLon0.09_PT044H.grib2 2026-04-28 14:53 330K
20260428T12Z_MSC_RDPS_DewPointDepression_IsbL-0350_RLatLon0.09_PT044H.grib2 2026-04-28 14:53 334K
20260428T12Z_MSC_RDPS_DewPointDepression_IsbL-0400_RLatLon0.09_PT044H.grib2 2026-04-28 14:53 338K
20260428T12Z_MSC_RDPS_DewPointDepression_IsbL-0450_RLatLon0.09_PT044H.grib2 2026-04-28 14:53 342K
20260428T12Z_MSC_RDPS_DewPointDepression_IsbL-0500_RLatLon0.09_PT044H.grib2 2026-04-28 14:53 348K
20260428T12Z_MSC_RDPS_DewPointDepression_IsbL-0550_RLatLon0.09_PT044H.grib2 2026-04-28 14:53 363K
20260428T12Z_MSC_RDPS_DewPointDepression_IsbL-0600_RLatLon0.09_PT044H.grib2 2026-04-28 14:53 380K
20260428T12Z_MSC_RDPS_DewPointDepression_IsbL-0650_RLatLon0.09_PT044H.grib2 2026-04-28 14:53 389K
20260428T12Z_MSC_RDPS_DewPointDepression_IsbL-0700_RLatLon0.09_PT044H.grib2 2026-04-28 14:53 395K
20260428T12Z_MSC_RDPS_DewPointDepression_IsbL-0750_RLatLon0.09_PT044H.grib2 2026-04-28 14:53 409K
20260428T12Z_MSC_RDPS_DewPointDepression_IsbL-0800_RLatLon0.09_PT044H.grib2 2026-04-28 14:53 433K
20260428T12Z_MSC_RDPS_DewPointDepression_IsbL-0850_RLatLon0.09_PT044H.grib2 2026-04-28 14:53 462K
20260428T12Z_MSC_RDPS_DewPointDepression_IsbL-0875_RLatLon0.09_PT044H.grib2 2026-04-28 14:53 467K
20260428T12Z_MSC_RDPS_DewPointDepression_IsbL-0900_RLatLon0.09_PT044H.grib2 2026-04-28 14:53 456K
20260428T12Z_MSC_RDPS_DewPointDepression_IsbL-0925_RLatLon0.09_PT044H.grib2 2026-04-28 14:53 444K
20260428T12Z_MSC_RDPS_DewPointDepression_IsbL-0950_RLatLon0.09_PT044H.grib2 2026-04-28 14:53 439K
20260428T12Z_MSC_RDPS_DewPointDepression_IsbL-0970_RLatLon0.09_PT044H.grib2 2026-04-28 14:53 431K
20260428T12Z_MSC_RDPS_DewPointDepression_IsbL-0985_RLatLon0.09_PT044H.grib2 2026-04-28 14:53 423K
20260428T12Z_MSC_RDPS_DewPointDepression_IsbL-1000_RLatLon0.09_PT044H.grib2 2026-04-28 14:53 417K
20260428T12Z_MSC_RDPS_DewPointDepression_IsbL-1015_RLatLon0.09_PT044H.grib2 2026-04-28 14:53 409K
20260428T12Z_MSC_RDPS_DewPoint_AGL-2m_RLatLon0.09_PT044H.grib2 2026-04-28 14:53 306K
20260428T12Z_MSC_RDPS_DownwardLongwaveRadiationFlux-Accum_Sfc_RLatLon0.09_PT044H.grib2 2026-04-28 14:53 356K
20260428T12Z_MSC_RDPS_DownwardShortwaveRadiationFlux-Accum_NTAtm_RLatLon0.09_PT044H.grib2 2026-04-28 14:53 122K
20260428T12Z_MSC_RDPS_DownwardShortwaveRadiationFlux-Accum_Sfc_RLatLon0.09_PT044H.grib2 2026-04-28 14:53 548K
20260428T12Z_MSC_RDPS_FreezingRain-Accum1h_Sfc_RLatLon0.09_PT044H.grib2 2026-04-28 14:53 44K
20260428T12Z_MSC_RDPS_FreezingRain-Accum_Sfc_RLatLon0.09_PT044H.grib2 2026-04-28 14:53 164K
20260428T12Z_MSC_RDPS_GeopotentialHeight_IsbL-0001_RLatLon0.09_PT044H.grib2 2026-04-28 14:53 238K
20260428T12Z_MSC_RDPS_GeopotentialHeight_IsbL-0005_RLatLon0.09_PT044H.grib2 2026-04-28 14:53 335K
20260428T12Z_MSC_RDPS_GeopotentialHeight_IsbL-0010_RLatLon0.09_PT044H.grib2 2026-04-28 14:53 304K
20260428T12Z_MSC_RDPS_GeopotentialHeight_IsbL-0020_RLatLon0.09_PT044H.grib2 2026-04-28 14:53 303K
20260428T12Z_MSC_RDPS_GeopotentialHeight_IsbL-0030_RLatLon0.09_PT044H.grib2 2026-04-28 14:53 304K
20260428T12Z_MSC_RDPS_GeopotentialHeight_IsbL-0050_RLatLon0.09_PT044H.grib2 2026-04-28 14:53 340K
20260428T12Z_MSC_RDPS_GeopotentialHeight_IsbL-0100_RLatLon0.09_PT044H.grib2 2026-04-28 14:53 285K
20260428T12Z_MSC_RDPS_GeopotentialHeight_IsbL-0150_RLatLon0.09_PT044H.grib2 2026-04-28 14:53 229K
20260428T12Z_MSC_RDPS_GeopotentialHeight_IsbL-0175_RLatLon0.09_PT044H.grib2 2026-04-28 14:53 262K
20260428T12Z_MSC_RDPS_GeopotentialHeight_IsbL-0200_RLatLon0.09_PT044H.grib2 2026-04-28 14:53 265K
20260428T12Z_MSC_RDPS_GeopotentialHeight_IsbL-0225_RLatLon0.09_PT044H.grib2 2026-04-28 14:53 266K
20260428T12Z_MSC_RDPS_GeopotentialHeight_IsbL-0250_RLatLon0.09_PT044H.grib2 2026-04-28 14:53 267K
20260428T12Z_MSC_RDPS_GeopotentialHeight_IsbL-0275_RLatLon0.09_PT044H.grib2 2026-04-28 14:53 266K
20260428T12Z_MSC_RDPS_GeopotentialHeight_IsbL-0300_RLatLon0.09_PT044H.grib2 2026-04-28 14:53 266K
20260428T12Z_MSC_RDPS_GeopotentialHeight_IsbL-0350_RLatLon0.09_PT044H.grib2 2026-04-28 14:53 231K
20260428T12Z_MSC_RDPS_GeopotentialHeight_IsbL-0400_RLatLon0.09_PT044H.grib2 2026-04-28 14:53 228K
20260428T12Z_MSC_RDPS_GeopotentialHeight_IsbL-0450_RLatLon0.09_PT044H.grib2 2026-04-28 14:53 295K
20260428T12Z_MSC_RDPS_GeopotentialHeight_IsbL-0500_RLatLon0.09_PT044H.grib2 2026-04-28 14:53 290K
20260428T12Z_MSC_RDPS_GeopotentialHeight_IsbL-0550_RLatLon0.09_PT044H.grib2 2026-04-28 14:53 285K
20260428T12Z_MSC_RDPS_GeopotentialHeight_IsbL-0600_RLatLon0.09_PT044H.grib2 2026-04-28 14:53 283K
20260428T12Z_MSC_RDPS_GeopotentialHeight_IsbL-0650_RLatLon0.09_PT044H.grib2 2026-04-28 14:53 252K
20260428T12Z_MSC_RDPS_GeopotentialHeight_IsbL-0700_RLatLon0.09_PT044H.grib2 2026-04-28 14:53 333K
20260428T12Z_MSC_RDPS_GeopotentialHeight_IsbL-0750_RLatLon0.09_PT044H.grib2 2026-04-28 14:53 334K
20260428T12Z_MSC_RDPS_GeopotentialHeight_IsbL-0800_RLatLon0.09_PT044H.grib2 2026-04-28 14:53 341K
20260428T12Z_MSC_RDPS_GeopotentialHeight_IsbL-0850_RLatLon0.09_PT044H.grib2 2026-04-28 14:53 383K
20260428T12Z_MSC_RDPS_GeopotentialHeight_IsbL-0875_RLatLon0.09_PT044H.grib2 2026-04-28 14:53 387K
20260428T12Z_MSC_RDPS_GeopotentialHeight_IsbL-0900_RLatLon0.09_PT044H.grib2 2026-04-28 14:53 391K
20260428T12Z_MSC_RDPS_GeopotentialHeight_IsbL-0925_RLatLon0.09_PT044H.grib2 2026-04-28 14:53 395K
20260428T12Z_MSC_RDPS_GeopotentialHeight_IsbL-0950_RLatLon0.09_PT044H.grib2 2026-04-28 14:53 398K
20260428T12Z_MSC_RDPS_GeopotentialHeight_IsbL-0970_RLatLon0.09_PT044H.grib2 2026-04-28 14:53 404K
20260428T12Z_MSC_RDPS_GeopotentialHeight_IsbL-0985_RLatLon0.09_PT044H.grib2 2026-04-28 14:53 412K
20260428T12Z_MSC_RDPS_GeopotentialHeight_IsbL-1000_RLatLon0.09_PT044H.grib2 2026-04-28 14:53 424K
20260428T12Z_MSC_RDPS_GeopotentialHeight_IsbL-1015_RLatLon0.09_PT044H.grib2 2026-04-28 14:53 438K
20260428T12Z_MSC_RDPS_Humidex_Sfc_RLatLon0.09_PT044H.grib2 2026-04-28 14:53 2.4M
20260428T12Z_MSC_RDPS_IcePellets-Accum1h_Sfc_RLatLon0.09_PT044H.grib2 2026-04-28 14:53 2.1K
20260428T12Z_MSC_RDPS_IcePellets-Accum_Sfc_RLatLon0.09_PT044H.grib2 2026-04-28 14:53 25K
20260428T12Z_MSC_RDPS_KIndex_Sfc_RLatLon0.09_PT044H.grib2 2026-04-28 14:53 2.5M
20260428T12Z_MSC_RDPS_LatentHeatNetFlux_Sfc_RLatLon0.09_PT044H.grib2 2026-04-28 14:53 398K
20260428T12Z_MSC_RDPS_LiftedIndex-MU-VT_IsbL-0500_RLatLon0.09_PT044H.grib2 2026-04-28 14:53 2.4M
20260428T12Z_MSC_RDPS_NetLongwaveRadiationFlux-Accum_Sfc_RLatLon0.09_PT044H.grib2 2026-04-28 14:53 523K
20260428T12Z_MSC_RDPS_NetShortwaveRadiationFlux-Accum_Sfc_RLatLon0.09_PT044H.grib2 2026-04-28 14:53 550K
20260428T12Z_MSC_RDPS_PlanetaryBoundaryLayerHeight_Sfc_RLatLon0.09_PT044H.grib2 2026-04-28 14:53 1.1M
20260428T12Z_MSC_RDPS_Precip-Accum1h_Sfc_RLatLon0.09_PT044H.grib2 2026-04-28 14:53 1.2M
20260428T12Z_MSC_RDPS_Precip-Accum_Sfc_RLatLon0.09_PT044H.grib2 2026-04-28 14:53 2.0M
20260428T12Z_MSC_RDPS_PrecipRate_Sfc_RLatLon0.09_PT044H.grib2 2026-04-28 14:53 170K
20260428T12Z_MSC_RDPS_PrecipType-Instant_Sfc_RLatLon0.09_PT044H.grib2 2026-04-28 14:53 556K
20260428T12Z_MSC_RDPS_Pressure-Trend3h_Sfc_RLatLon0.09_PT044H.grib2 2026-04-28 14:53 1.2M
20260428T12Z_MSC_RDPS_Pressure_MSL_RLatLon0.09_PT044H.grib2 2026-04-28 14:53 290K
20260428T12Z_MSC_RDPS_Pressure_PVU-1.5_RLatLon0.09_PT044H.grib2 2026-04-28 14:53 2.5M
20260428T12Z_MSC_RDPS_Pressure_PVU-1_RLatLon0.09_PT044H.grib2 2026-04-28 14:53 2.4M
20260428T12Z_MSC_RDPS_Pressure_PVU-2_RLatLon0.09_PT044H.grib2 2026-04-28 14:53 2.4M
20260428T12Z_MSC_RDPS_Pressure_Sfc_RLatLon0.09_PT044H.grib2 2026-04-28 14:53 500K
20260428T12Z_MSC_RDPS_RadiativeTemp_Sfc_RLatLon0.09_PT044H.grib2 2026-04-28 14:53 303K
20260428T12Z_MSC_RDPS_Rain-Accum1h_Sfc_RLatLon0.09_PT044H.grib2 2026-04-28 14:53 566K
20260428T12Z_MSC_RDPS_Rain-Accum_Sfc_RLatLon0.09_PT044H.grib2 2026-04-28 14:53 1.5M
20260428T12Z_MSC_RDPS_RelativeHumidity_AGL-2m_RLatLon0.09_PT044H.grib2 2026-04-28 14:53 1.0M
20260428T12Z_MSC_RDPS_RelativeHumidity_IsbL-0010_RLatLon0.09_PT044H.grib2 2026-04-28 14:53 638K
20260428T12Z_MSC_RDPS_RelativeHumidity_IsbL-0020_RLatLon0.09_PT044H.grib2 2026-04-28 14:53 681K
20260428T12Z_MSC_RDPS_RelativeHumidity_IsbL-0030_RLatLon0.09_PT044H.grib2 2026-04-28 14:53 607K
20260428T12Z_MSC_RDPS_RelativeHumidity_IsbL-0050_RLatLon0.09_PT044H.grib2 2026-04-28 14:53 370K
20260428T12Z_MSC_RDPS_RelativeHumidity_IsbL-0100_RLatLon0.09_PT044H.grib2 2026-04-28 14:53 286K
20260428T12Z_MSC_RDPS_RelativeHumidity_IsbL-0150_RLatLon0.09_PT044H.grib2 2026-04-28 14:53 412K
20260428T12Z_MSC_RDPS_RelativeHumidity_IsbL-0175_RLatLon0.09_PT044H.grib2 2026-04-28 14:53 484K
20260428T12Z_MSC_RDPS_RelativeHumidity_IsbL-0200_RLatLon0.09_PT044H.grib2 2026-04-28 14:53 557K
20260428T12Z_MSC_RDPS_RelativeHumidity_IsbL-0225_RLatLon0.09_PT044H.grib2 2026-04-28 14:53 629K
20260428T12Z_MSC_RDPS_RelativeHumidity_IsbL-0250_RLatLon0.09_PT044H.grib2 2026-04-28 14:53 705K
20260428T12Z_MSC_RDPS_RelativeHumidity_IsbL-0275_RLatLon0.09_PT044H.grib2 2026-04-28 14:53 731K
20260428T12Z_MSC_RDPS_RelativeHumidity_IsbL-0300_RLatLon0.09_PT044H.grib2 2026-04-28 14:53 778K
20260428T12Z_MSC_RDPS_RelativeHumidity_IsbL-0350_RLatLon0.09_PT044H.grib2 2026-04-28 14:53 794K
20260428T12Z_MSC_RDPS_RelativeHumidity_IsbL-0400_RLatLon0.09_PT044H.grib2 2026-04-28 14:53 798K
20260428T12Z_MSC_RDPS_RelativeHumidity_IsbL-0450_RLatLon0.09_PT044H.grib2 2026-04-28 14:53 799K
20260428T12Z_MSC_RDPS_RelativeHumidity_IsbL-0500_RLatLon0.09_PT044H.grib2 2026-04-28 14:53 806K
20260428T12Z_MSC_RDPS_RelativeHumidity_IsbL-0550_RLatLon0.09_PT044H.grib2 2026-04-28 14:53 825K
20260428T12Z_MSC_RDPS_RelativeHumidity_IsbL-0600_RLatLon0.09_PT044H.grib2 2026-04-28 14:53 851K
20260428T12Z_MSC_RDPS_RelativeHumidity_IsbL-0650_RLatLon0.09_PT044H.grib2 2026-04-28 14:53 864K
20260428T12Z_MSC_RDPS_RelativeHumidity_IsbL-0700_RLatLon0.09_PT044H.grib2 2026-04-28 14:53 882K
20260428T12Z_MSC_RDPS_RelativeHumidity_IsbL-0750_RLatLon0.09_PT044H.grib2 2026-04-28 14:53 918K
20260428T12Z_MSC_RDPS_RelativeHumidity_IsbL-0800_RLatLon0.09_PT044H.grib2 2026-04-28 14:53 969K
20260428T12Z_MSC_RDPS_RelativeHumidity_IsbL-0850_RLatLon0.09_PT044H.grib2 2026-04-28 14:53 1.0M
20260428T12Z_MSC_RDPS_RelativeHumidity_IsbL-0875_RLatLon0.09_PT044H.grib2 2026-04-28 14:53 1.0M
20260428T12Z_MSC_RDPS_RelativeHumidity_IsbL-0900_RLatLon0.09_PT044H.grib2 2026-04-28 14:53 1.0M
20260428T12Z_MSC_RDPS_RelativeHumidity_IsbL-0925_RLatLon0.09_PT044H.grib2 2026-04-28 14:53 1.0M
20260428T12Z_MSC_RDPS_RelativeHumidity_IsbL-0950_RLatLon0.09_PT044H.grib2 2026-04-28 14:53 1.1M
20260428T12Z_MSC_RDPS_RelativeHumidity_IsbL-0970_RLatLon0.09_PT044H.grib2 2026-04-28 14:53 1.0M
20260428T12Z_MSC_RDPS_RelativeHumidity_IsbL-0985_RLatLon0.09_PT044H.grib2 2026-04-28 14:53 1.0M
20260428T12Z_MSC_RDPS_RelativeHumidity_IsbL-1000_RLatLon0.09_PT044H.grib2 2026-04-28 14:53 1.0M
20260428T12Z_MSC_RDPS_RelativeHumidity_IsbL-1015_RLatLon0.09_PT044H.grib2 2026-04-28 14:53 1.0M
20260428T12Z_MSC_RDPS_Runoff-Accum_Sfc_RLatLon0.09_PT044H.grib2 2026-04-28 14:53 67K
20260428T12Z_MSC_RDPS_SWEATIndex_Sfc_RLatLon0.09_PT044H.grib2 2026-04-28 14:53 2.4M
20260428T12Z_MSC_RDPS_SeeingIndex_EAtm_RLatLon0.09_PT044H.grib2 2026-04-28 14:53 1.0M
20260428T12Z_MSC_RDPS_SensibleHeatNetFlux_Sfc_RLatLon0.09_PT044H.grib2 2026-04-28 14:53 287K
20260428T12Z_MSC_RDPS_ShowalterIndex_IsbL-0500_RLatLon0.09_PT044H.grib2 2026-04-28 14:53 2.6M
20260428T12Z_MSC_RDPS_SkyTransparencyIndex_EAtm_RLatLon0.09_PT044H.grib2 2026-04-28 14:53 681K
20260428T12Z_MSC_RDPS_Snow-Accum1h_Sfc_RLatLon0.09_PT044H.grib2 2026-04-28 14:53 469K
20260428T12Z_MSC_RDPS_Snow-Accum_Sfc_RLatLon0.09_PT044H.grib2 2026-04-28 14:53 785K
20260428T12Z_MSC_RDPS_SnowDensity_Sfc_RLatLon0.09_PT044H.grib2 2026-04-28 14:53 181K
20260428T12Z_MSC_RDPS_SnowDepth_Sfc_RLatLon0.09_PT044H.grib2 2026-04-28 14:53 687K
20260428T12Z_MSC_RDPS_SoilTemp_DBS-0to10cm_RLatLon0.09_PT044H.grib2 2026-04-28 14:53 233K
20260428T12Z_MSC_RDPS_SoilTemp_Sfc_RLatLon0.09_PT044H.grib2 2026-04-28 14:53 271K
20260428T12Z_MSC_RDPS_SoilVolumetricIceContent_Sfc_RLatLon0.09_PT044H.grib2 2026-04-28 14:53 164K
20260428T12Z_MSC_RDPS_SoilVolumetricWaterContent_DBS-0to10cm_RLatLon0.09_PT044H.grib2 2026-04-28 14:53 267K
20260428T12Z_MSC_RDPS_SoilVolumetricWaterContent_DBS-0to1cm_RLatLon0.09_PT044H.grib2 2026-04-28 14:53 337K
20260428T12Z_MSC_RDPS_SpecificHumidity_AGL-120m_RLatLon0.09_PT044H.grib2 2026-04-28 14:53 483K
20260428T12Z_MSC_RDPS_SpecificHumidity_AGL-2m_RLatLon0.09_PT044H.grib2 2026-04-28 14:53 645K
20260428T12Z_MSC_RDPS_SpecificHumidity_AGL-40m_RLatLon0.09_PT044H.grib2 2026-04-28 14:53 487K
20260428T12Z_MSC_RDPS_SpecificHumidity_AGL-80m_RLatLon0.09_PT044H.grib2 2026-04-28 14:53 483K
20260428T12Z_MSC_RDPS_SpecificHumidity_IsbL-0001_RLatLon0.09_PT044H.grib2 2026-04-28 14:53 341K
20260428T12Z_MSC_RDPS_SpecificHumidity_IsbL-0005_RLatLon0.09_PT044H.grib2 2026-04-28 14:53 359K
20260428T12Z_MSC_RDPS_SpecificHumidity_IsbL-0010_RLatLon0.09_PT044H.grib2 2026-04-28 14:53 396K
20260428T12Z_MSC_RDPS_SpecificHumidity_IsbL-0020_RLatLon0.09_PT044H.grib2 2026-04-28 14:53 386K
20260428T12Z_MSC_RDPS_SpecificHumidity_IsbL-0030_RLatLon0.09_PT044H.grib2 2026-04-28 14:53 369K
20260428T12Z_MSC_RDPS_SpecificHumidity_IsbL-0050_RLatLon0.09_PT044H.grib2 2026-04-28 14:53 457K
20260428T12Z_MSC_RDPS_SpecificHumidity_IsbL-0100_RLatLon0.09_PT044H.grib2 2026-04-28 14:53 354K
20260428T12Z_MSC_RDPS_SpecificHumidity_IsbL-0150_RLatLon0.09_PT044H.grib2 2026-04-28 14:53 458K
20260428T12Z_MSC_RDPS_SpecificHumidity_IsbL-0175_RLatLon0.09_PT044H.grib2 2026-04-28 14:53 439K
20260428T12Z_MSC_RDPS_SpecificHumidity_IsbL-0200_RLatLon0.09_PT044H.grib2 2026-04-28 14:53 452K
20260428T12Z_MSC_RDPS_SpecificHumidity_IsbL-0225_RLatLon0.09_PT044H.grib2 2026-04-28 14:53 458K
20260428T12Z_MSC_RDPS_SpecificHumidity_IsbL-0250_RLatLon0.09_PT044H.grib2 2026-04-28 14:53 566K
20260428T12Z_MSC_RDPS_SpecificHumidity_IsbL-0275_RLatLon0.09_PT044H.grib2 2026-04-28 14:53 479K
20260428T12Z_MSC_RDPS_SpecificHumidity_IsbL-0300_RLatLon0.09_PT044H.grib2 2026-04-28 14:53 581K
20260428T12Z_MSC_RDPS_SpecificHumidity_IsbL-0350_RLatLon0.09_PT044H.grib2 2026-04-28 14:53 546K
20260428T12Z_MSC_RDPS_SpecificHumidity_IsbL-0400_RLatLon0.09_PT044H.grib2 2026-04-28 14:53 521K
20260428T12Z_MSC_RDPS_SpecificHumidity_IsbL-0450_RLatLon0.09_PT044H.grib2 2026-04-28 14:53 570K
20260428T12Z_MSC_RDPS_SpecificHumidity_IsbL-0500_RLatLon0.09_PT044H.grib2 2026-04-28 14:53 508K
20260428T12Z_MSC_RDPS_SpecificHumidity_IsbL-0550_RLatLon0.09_PT044H.grib2 2026-04-28 14:53 584K
20260428T12Z_MSC_RDPS_SpecificHumidity_IsbL-0600_RLatLon0.09_PT044H.grib2 2026-04-28 14:53 642K
20260428T12Z_MSC_RDPS_SpecificHumidity_IsbL-0650_RLatLon0.09_PT044H.grib2 2026-04-28 14:53 561K
20260428T12Z_MSC_RDPS_SpecificHumidity_IsbL-0700_RLatLon0.09_PT044H.grib2 2026-04-28 14:53 599K
20260428T12Z_MSC_RDPS_SpecificHumidity_IsbL-0750_RLatLon0.09_PT044H.grib2 2026-04-28 14:53 647K
20260428T12Z_MSC_RDPS_SpecificHumidity_IsbL-0800_RLatLon0.09_PT044H.grib2 2026-04-28 14:53 715K
20260428T12Z_MSC_RDPS_SpecificHumidity_IsbL-0850_RLatLon0.09_PT044H.grib2 2026-04-28 14:53 786K
20260428T12Z_MSC_RDPS_SpecificHumidity_IsbL-0875_RLatLon0.09_PT044H.grib2 2026-04-28 14:53 814K
20260428T12Z_MSC_RDPS_SpecificHumidity_IsbL-0900_RLatLon0.09_PT044H.grib2 2026-04-28 14:53 828K
20260428T12Z_MSC_RDPS_SpecificHumidity_IsbL-0925_RLatLon0.09_PT044H.grib2 2026-04-28 14:53 831K
20260428T12Z_MSC_RDPS_SpecificHumidity_IsbL-0950_RLatLon0.09_PT044H.grib2 2026-04-28 14:53 833K
20260428T12Z_MSC_RDPS_SpecificHumidity_IsbL-0970_RLatLon0.09_PT044H.grib2 2026-04-28 14:53 823K
20260428T12Z_MSC_RDPS_SpecificHumidity_IsbL-0985_RLatLon0.09_PT044H.grib2 2026-04-28 14:53 811K
20260428T12Z_MSC_RDPS_SpecificHumidity_IsbL-1000_RLatLon0.09_PT044H.grib2 2026-04-28 14:53 663K
20260428T12Z_MSC_RDPS_SpecificHumidity_IsbL-1015_RLatLon0.09_PT044H.grib2 2026-04-28 14:53 654K
20260428T12Z_MSC_RDPS_SpecificHumidity_Sfc_RLatLon0.09_PT044H.grib2 2026-04-28 14:53 291K
20260428T12Z_MSC_RDPS_StormRelativeHelicity_EtaL-10000_RLatLon0.09_PT044H.grib2 2026-04-28 14:53 1.1M
20260428T12Z_MSC_RDPS_StormSeverityIndex_EtaL-10000_RLatLon0.09_PT044H.grib2 2026-04-28 14:53 1.1M
20260428T12Z_MSC_RDPS_Thickness_IsbL-0850to0700_RLatLon0.09_PT044H.grib2 2026-04-28 14:53 177K
20260428T12Z_MSC_RDPS_Thickness_IsbL-1000to0500_RLatLon0.09_PT044H.grib2 2026-04-28 14:53 197K
20260428T12Z_MSC_RDPS_Thickness_IsbL-1000to0850_RLatLon0.09_PT044H.grib2 2026-04-28 14:53 259K
20260428T12Z_MSC_RDPS_TotalCloudCover_Sfc_RLatLon0.09_PT044H.grib2 2026-04-28 14:53 654K
20260428T12Z_MSC_RDPS_TotalTotalsIndex_Sfc_RLatLon0.09_PT044H.grib2 2026-04-28 14:53 2.4M
20260428T12Z_MSC_RDPS_UVIndex-ClearSky_Sfc_RLatLon0.09_PT044H.grib2 2026-04-28 14:53 90K
20260428T12Z_MSC_RDPS_UVIndex_Sfc_RLatLon0.09_PT044H.grib2 2026-04-28 14:53 162K
20260428T12Z_MSC_RDPS_UpwardLongwaveRadiationFlux_NTAtm_RLatLon0.09_PT044H.grib2 2026-04-28 14:53 491K
20260428T12Z_MSC_RDPS_UpwardShortwaveRadiationFlux_NTAtm_RLatLon0.09_PT044H.grib2 2026-04-28 14:53 138K
20260428T12Z_MSC_RDPS_VerticalVelocity_IsbL-0250_RLatLon0.09_PT044H.grib2 2026-04-28 14:53 440K
20260428T12Z_MSC_RDPS_VerticalVelocity_IsbL-0500_RLatLon0.09_PT044H.grib2 2026-04-28 14:53 543K
20260428T12Z_MSC_RDPS_VerticalVelocity_IsbL-0700_RLatLon0.09_PT044H.grib2 2026-04-28 14:53 587K
20260428T12Z_MSC_RDPS_VerticalVelocity_IsbL-0850_RLatLon0.09_PT044H.grib2 2026-04-28 14:53 677K
20260428T12Z_MSC_RDPS_VerticalWindShear_EtaL-6500_RLatLon0.09_PT044H.grib2 2026-04-28 14:53 1.2M
20260428T12Z_MSC_RDPS_WindChill_Sfc_RLatLon0.09_PT044H.grib2 2026-04-28 14:53 1.1M
20260428T12Z_MSC_RDPS_WindDir_AGL-10m_RLatLon0.09_PT044H.grib2 2026-04-28 14:53 965K
20260428T12Z_MSC_RDPS_WindDir_AGL-120m_RLatLon0.09_PT044H.grib2 2026-04-28 14:53 602K
20260428T12Z_MSC_RDPS_WindDir_AGL-40m_RLatLon0.09_PT044H.grib2 2026-04-28 14:53 633K
20260428T12Z_MSC_RDPS_WindDir_AGL-80m_RLatLon0.09_PT044H.grib2 2026-04-28 14:53 614K
20260428T12Z_MSC_RDPS_WindDir_IsbL-0001_RLatLon0.09_PT044H.grib2 2026-04-28 14:53 307K
20260428T12Z_MSC_RDPS_WindDir_IsbL-0005_RLatLon0.09_PT044H.grib2 2026-04-28 14:53 360K
20260428T12Z_MSC_RDPS_WindDir_IsbL-0010_RLatLon0.09_PT044H.grib2 2026-04-28 14:53 380K
20260428T12Z_MSC_RDPS_WindDir_IsbL-0020_RLatLon0.09_PT044H.grib2 2026-04-28 14:53 423K
20260428T12Z_MSC_RDPS_WindDir_IsbL-0030_RLatLon0.09_PT044H.grib2 2026-04-28 14:53 425K
20260428T12Z_MSC_RDPS_WindDir_IsbL-0050_RLatLon0.09_PT044H.grib2 2026-04-28 14:53 433K
20260428T12Z_MSC_RDPS_WindDir_IsbL-0100_RLatLon0.09_PT044H.grib2 2026-04-28 14:53 437K
20260428T12Z_MSC_RDPS_WindDir_IsbL-0150_RLatLon0.09_PT044H.grib2 2026-04-28 14:53 431K
20260428T12Z_MSC_RDPS_WindDir_IsbL-0175_RLatLon0.09_PT044H.grib2 2026-04-28 14:53 447K
20260428T12Z_MSC_RDPS_WindDir_IsbL-0200_RLatLon0.09_PT044H.grib2 2026-04-28 14:53 458K
20260428T12Z_MSC_RDPS_WindDir_IsbL-0225_RLatLon0.09_PT044H.grib2 2026-04-28 14:53 465K
20260428T12Z_MSC_RDPS_WindDir_IsbL-0250_RLatLon0.09_PT044H.grib2 2026-04-28 14:53 468K
20260428T12Z_MSC_RDPS_WindDir_IsbL-0275_RLatLon0.09_PT044H.grib2 2026-04-28 14:53 487K
20260428T12Z_MSC_RDPS_WindDir_IsbL-0300_RLatLon0.09_PT044H.grib2 2026-04-28 14:53 481K
20260428T12Z_MSC_RDPS_WindDir_IsbL-0350_RLatLon0.09_PT044H.grib2 2026-04-28 14:53 505K
20260428T12Z_MSC_RDPS_WindDir_IsbL-0400_RLatLon0.09_PT044H.grib2 2026-04-28 14:53 516K
20260428T12Z_MSC_RDPS_WindDir_IsbL-0450_RLatLon0.09_PT044H.grib2 2026-04-28 14:53 526K
20260428T12Z_MSC_RDPS_WindDir_IsbL-0500_RLatLon0.09_PT044H.grib2 2026-04-28 14:53 545K
20260428T12Z_MSC_RDPS_WindDir_IsbL-0550_RLatLon0.09_PT044H.grib2 2026-04-28 14:53 569K
20260428T12Z_MSC_RDPS_WindDir_IsbL-0600_RLatLon0.09_PT044H.grib2 2026-04-28 14:53 601K
20260428T12Z_MSC_RDPS_WindDir_IsbL-0650_RLatLon0.09_PT044H.grib2 2026-04-28 14:53 642K
20260428T12Z_MSC_RDPS_WindDir_IsbL-0700_RLatLon0.09_PT044H.grib2 2026-04-28 14:53 682K
20260428T12Z_MSC_RDPS_WindDir_IsbL-0750_RLatLon0.09_PT044H.grib2 2026-04-28 14:53 722K
20260428T12Z_MSC_RDPS_WindDir_IsbL-0800_RLatLon0.09_PT044H.grib2 2026-04-28 14:53 779K
20260428T12Z_MSC_RDPS_WindDir_IsbL-0850_RLatLon0.09_PT044H.grib2 2026-04-28 14:53 850K
20260428T12Z_MSC_RDPS_WindDir_IsbL-0875_RLatLon0.09_PT044H.grib2 2026-04-28 14:53 877K
20260428T12Z_MSC_RDPS_WindDir_IsbL-0900_RLatLon0.09_PT044H.grib2 2026-04-28 14:53 899K
20260428T12Z_MSC_RDPS_WindDir_IsbL-0925_RLatLon0.09_PT044H.grib2 2026-04-28 14:53 914K
20260428T12Z_MSC_RDPS_WindDir_IsbL-0950_RLatLon0.09_PT044H.grib2 2026-04-28 14:53 912K
20260428T12Z_MSC_RDPS_WindDir_IsbL-0970_RLatLon0.09_PT044H.grib2 2026-04-28 14:53 920K
20260428T12Z_MSC_RDPS_WindDir_IsbL-0985_RLatLon0.09_PT044H.grib2 2026-04-28 14:53 928K
20260428T12Z_MSC_RDPS_WindDir_IsbL-1000_RLatLon0.09_PT044H.grib2 2026-04-28 14:53 941K
20260428T12Z_MSC_RDPS_WindDir_IsbL-1015_RLatLon0.09_PT044H.grib2 2026-04-28 14:53 957K
20260428T12Z_MSC_RDPS_WindGust-Max_AGL-10m_RLatLon0.09_PT044H.grib2 2026-04-28 14:53 1.0M
20260428T12Z_MSC_RDPS_WindGust-Min_AGL-10m_RLatLon0.09_PT044H.grib2 2026-04-28 14:53 968K
20260428T12Z_MSC_RDPS_WindGust_AGL-10m_RLatLon0.09_PT044H.grib2 2026-04-28 14:53 1.0M
20260428T12Z_MSC_RDPS_WindSpeed_AGL-10m_RLatLon0.09_PT044H.grib2 2026-04-28 14:53 831K
20260428T12Z_MSC_RDPS_WindSpeed_AGL-120m_RLatLon0.09_PT044H.grib2 2026-04-28 14:53 536K
20260428T12Z_MSC_RDPS_WindSpeed_AGL-40m_RLatLon0.09_PT044H.grib2 2026-04-28 14:53 536K
20260428T12Z_MSC_RDPS_WindSpeed_AGL-80m_RLatLon0.09_PT044H.grib2 2026-04-28 14:53 536K
20260428T12Z_MSC_RDPS_WindSpeed_IsbL-0001_RLatLon0.09_PT044H.grib2 2026-04-28 14:53 254K
20260428T12Z_MSC_RDPS_WindSpeed_IsbL-0005_RLatLon0.09_PT044H.grib2 2026-04-28 14:53 297K
20260428T12Z_MSC_RDPS_WindSpeed_IsbL-0010_RLatLon0.09_PT044H.grib2 2026-04-28 14:53 404K
20260428T12Z_MSC_RDPS_WindSpeed_IsbL-0020_RLatLon0.09_PT044H.grib2 2026-04-28 14:53 328K
20260428T12Z_MSC_RDPS_WindSpeed_IsbL-0030_RLatLon0.09_PT044H.grib2 2026-04-28 14:53 327K
20260428T12Z_MSC_RDPS_WindSpeed_IsbL-0050_RLatLon0.09_PT044H.grib2 2026-04-28 14:53 353K
20260428T12Z_MSC_RDPS_WindSpeed_IsbL-0100_RLatLon0.09_PT044H.grib2 2026-04-28 14:53 484K
20260428T12Z_MSC_RDPS_WindSpeed_IsbL-0150_RLatLon0.09_PT044H.grib2 2026-04-28 14:53 388K
20260428T12Z_MSC_RDPS_WindSpeed_IsbL-0175_RLatLon0.09_PT044H.grib2 2026-04-28 14:53 434K
20260428T12Z_MSC_RDPS_WindSpeed_IsbL-0200_RLatLon0.09_PT044H.grib2 2026-04-28 14:53 449K
20260428T12Z_MSC_RDPS_WindSpeed_IsbL-0225_RLatLon0.09_PT044H.grib2 2026-04-28 14:53 457K
20260428T12Z_MSC_RDPS_WindSpeed_IsbL-0250_RLatLon0.09_PT044H.grib2 2026-04-28 14:53 460K
20260428T12Z_MSC_RDPS_WindSpeed_IsbL-0275_RLatLon0.09_PT044H.grib2 2026-04-28 14:53 478K
20260428T12Z_MSC_RDPS_WindSpeed_IsbL-0300_RLatLon0.09_PT044H.grib2 2026-04-28 14:53 474K
20260428T12Z_MSC_RDPS_WindSpeed_IsbL-0350_RLatLon0.09_PT044H.grib2 2026-04-28 14:53 487K
20260428T12Z_MSC_RDPS_WindSpeed_IsbL-0400_RLatLon0.09_PT044H.grib2 2026-04-28 14:53 483K
20260428T12Z_MSC_RDPS_WindSpeed_IsbL-0450_RLatLon0.09_PT044H.grib2 2026-04-28 14:53 466K
20260428T12Z_MSC_RDPS_WindSpeed_IsbL-0500_RLatLon0.09_PT044H.grib2 2026-04-28 14:53 467K
20260428T12Z_MSC_RDPS_WindSpeed_IsbL-0550_RLatLon0.09_PT044H.grib2 2026-04-28 14:53 584K
20260428T12Z_MSC_RDPS_WindSpeed_IsbL-0600_RLatLon0.09_PT044H.grib2 2026-04-28 14:53 593K
20260428T12Z_MSC_RDPS_WindSpeed_IsbL-0650_RLatLon0.09_PT044H.grib2 2026-04-28 14:53 613K
20260428T12Z_MSC_RDPS_WindSpeed_IsbL-0700_RLatLon0.09_PT044H.grib2 2026-04-28 14:53 637K
20260428T12Z_MSC_RDPS_WindSpeed_IsbL-0750_RLatLon0.09_PT044H.grib2 2026-04-28 14:53 708K
20260428T12Z_MSC_RDPS_WindSpeed_IsbL-0800_RLatLon0.09_PT044H.grib2 2026-04-28 14:53 748K
20260428T12Z_MSC_RDPS_WindSpeed_IsbL-0850_RLatLon0.09_PT044H.grib2 2026-04-28 14:53 804K
20260428T12Z_MSC_RDPS_WindSpeed_IsbL-0875_RLatLon0.09_PT044H.grib2 2026-04-28 14:53 826K
20260428T12Z_MSC_RDPS_WindSpeed_IsbL-0900_RLatLon0.09_PT044H.grib2 2026-04-28 14:53 842K
20260428T12Z_MSC_RDPS_WindSpeed_IsbL-0925_RLatLon0.09_PT044H.grib2 2026-04-28 14:53 856K
20260428T12Z_MSC_RDPS_WindSpeed_IsbL-0950_RLatLon0.09_PT044H.grib2 2026-04-28 14:53 857K
20260428T12Z_MSC_RDPS_WindSpeed_IsbL-0970_RLatLon0.09_PT044H.grib2 2026-04-28 14:53 858K
20260428T12Z_MSC_RDPS_WindSpeed_IsbL-0985_RLatLon0.09_PT044H.grib2 2026-04-28 14:53 849K
20260428T12Z_MSC_RDPS_WindSpeed_IsbL-1000_RLatLon0.09_PT044H.grib2 2026-04-28 14:53 841K
20260428T12Z_MSC_RDPS_WindSpeed_IsbL-1015_RLatLon0.09_PT044H.grib2 2026-04-28 14:53 831K
20260428T12Z_MSC_RDPS_WindU_AGL-10m_RLatLon0.09_PT044H.grib2 2026-04-28 14:53 426K
20260428T12Z_MSC_RDPS_WindU_AGL-120m_RLatLon0.09_PT044H.grib2 2026-04-28 14:53 532K
20260428T12Z_MSC_RDPS_WindU_AGL-40m_RLatLon0.09_PT044H.grib2 2026-04-28 14:53 534K
20260428T12Z_MSC_RDPS_WindU_AGL-80m_RLatLon0.09_PT044H.grib2 2026-04-28 14:53 533K
20260428T12Z_MSC_RDPS_WindU_IsbL-0001_RLatLon0.09_PT044H.grib2 2026-04-28 14:53 242K
20260428T12Z_MSC_RDPS_WindU_IsbL-0005_RLatLon0.09_PT044H.grib2 2026-04-28 14:53 289K
20260428T12Z_MSC_RDPS_WindU_IsbL-0010_RLatLon0.09_PT044H.grib2 2026-04-28 14:53 301K
20260428T12Z_MSC_RDPS_WindU_IsbL-0020_RLatLon0.09_PT044H.grib2 2026-04-28 14:53 355K
20260428T12Z_MSC_RDPS_WindU_IsbL-0030_RLatLon0.09_PT044H.grib2 2026-04-28 14:53 317K
20260428T12Z_MSC_RDPS_WindU_IsbL-0050_RLatLon0.09_PT044H.grib2 2026-04-28 14:53 381K
20260428T12Z_MSC_RDPS_WindU_IsbL-0100_RLatLon0.09_PT044H.grib2 2026-04-28 14:53 342K
20260428T12Z_MSC_RDPS_WindU_IsbL-0150_RLatLon0.09_PT044H.grib2 2026-04-28 14:53 403K
20260428T12Z_MSC_RDPS_WindU_IsbL-0175_RLatLon0.09_PT044H.grib2 2026-04-28 14:53 426K
20260428T12Z_MSC_RDPS_WindU_IsbL-0200_RLatLon0.09_PT044H.grib2 2026-04-28 14:53 342K
20260428T12Z_MSC_RDPS_WindU_IsbL-0225_RLatLon0.09_PT044H.grib2 2026-04-28 14:53 348K
20260428T12Z_MSC_RDPS_WindU_IsbL-0250_RLatLon0.09_PT044H.grib2 2026-04-28 14:53 349K
20260428T12Z_MSC_RDPS_WindU_IsbL-0275_RLatLon0.09_PT044H.grib2 2026-04-28 14:53 363K
20260428T12Z_MSC_RDPS_WindU_IsbL-0300_RLatLon0.09_PT044H.grib2 2026-04-28 14:53 360K
20260428T12Z_MSC_RDPS_WindU_IsbL-0350_RLatLon0.09_PT044H.grib2 2026-04-28 14:53 474K
20260428T12Z_MSC_RDPS_WindU_IsbL-0400_RLatLon0.09_PT044H.grib2 2026-04-28 14:53 472K
20260428T12Z_MSC_RDPS_WindU_IsbL-0450_RLatLon0.09_PT044H.grib2 2026-04-28 14:53 471K
20260428T12Z_MSC_RDPS_WindU_IsbL-0500_RLatLon0.09_PT044H.grib2 2026-04-28 14:53 456K
20260428T12Z_MSC_RDPS_WindU_IsbL-0550_RLatLon0.09_PT044H.grib2 2026-04-28 14:53 456K
20260428T12Z_MSC_RDPS_WindU_IsbL-0600_RLatLon0.09_PT044H.grib2 2026-04-28 14:53 464K
20260428T12Z_MSC_RDPS_WindU_IsbL-0650_RLatLon0.09_PT044H.grib2 2026-04-28 14:53 482K
20260428T12Z_MSC_RDPS_WindU_IsbL-0700_RLatLon0.09_PT044H.grib2 2026-04-28 14:53 504K
20260428T12Z_MSC_RDPS_WindU_IsbL-0750_RLatLon0.09_PT044H.grib2 2026-04-28 14:53 529K
20260428T12Z_MSC_RDPS_WindU_IsbL-0800_RLatLon0.09_PT044H.grib2 2026-04-28 14:53 565K
20260428T12Z_MSC_RDPS_WindU_IsbL-0850_RLatLon0.09_PT044H.grib2 2026-04-28 14:53 613K
20260428T12Z_MSC_RDPS_WindU_IsbL-0875_RLatLon0.09_PT044H.grib2 2026-04-28 14:53 631K
20260428T12Z_MSC_RDPS_WindU_IsbL-0900_RLatLon0.09_PT044H.grib2 2026-04-28 14:53 645K
20260428T12Z_MSC_RDPS_WindU_IsbL-0925_RLatLon0.09_PT044H.grib2 2026-04-28 14:53 654K
20260428T12Z_MSC_RDPS_WindU_IsbL-0950_RLatLon0.09_PT044H.grib2 2026-04-28 14:53 652K
20260428T12Z_MSC_RDPS_WindU_IsbL-0970_RLatLon0.09_PT044H.grib2 2026-04-28 14:53 650K
20260428T12Z_MSC_RDPS_WindU_IsbL-0985_RLatLon0.09_PT044H.grib2 2026-04-28 14:53 784K
20260428T12Z_MSC_RDPS_WindU_IsbL-1000_RLatLon0.09_PT044H.grib2 2026-04-28 14:53 778K
20260428T12Z_MSC_RDPS_WindU_IsbL-1015_RLatLon0.09_PT044H.grib2 2026-04-28 14:53 817K
20260428T12Z_MSC_RDPS_WindV_AGL-10m_RLatLon0.09_PT044H.grib2 2026-04-28 14:53 426K
20260428T12Z_MSC_RDPS_WindV_AGL-120m_RLatLon0.09_PT044H.grib2 2026-04-28 14:53 530K
20260428T12Z_MSC_RDPS_WindV_AGL-40m_RLatLon0.09_PT044H.grib2 2026-04-28 14:53 532K
20260428T12Z_MSC_RDPS_WindV_AGL-80m_RLatLon0.09_PT044H.grib2 2026-04-28 14:53 530K
20260428T12Z_MSC_RDPS_WindV_IsbL-0001_RLatLon0.09_PT044H.grib2 2026-04-28 14:53 246K
20260428T12Z_MSC_RDPS_WindV_IsbL-0005_RLatLon0.09_PT044H.grib2 2026-04-28 14:53 291K
20260428T12Z_MSC_RDPS_WindV_IsbL-0010_RLatLon0.09_PT044H.grib2 2026-04-28 14:53 305K
20260428T12Z_MSC_RDPS_WindV_IsbL-0020_RLatLon0.09_PT044H.grib2 2026-04-28 14:53 320K
20260428T12Z_MSC_RDPS_WindV_IsbL-0030_RLatLon0.09_PT044H.grib2 2026-04-28 14:53 321K
20260428T12Z_MSC_RDPS_WindV_IsbL-0050_RLatLon0.09_PT044H.grib2 2026-04-28 14:53 348K
20260428T12Z_MSC_RDPS_WindV_IsbL-0100_RLatLon0.09_PT044H.grib2 2026-04-28 14:53 435K
20260428T12Z_MSC_RDPS_WindV_IsbL-0150_RLatLon0.09_PT044H.grib2 2026-04-28 14:53 401K
20260428T12Z_MSC_RDPS_WindV_IsbL-0175_RLatLon0.09_PT044H.grib2 2026-04-28 14:53 424K
20260428T12Z_MSC_RDPS_WindV_IsbL-0200_RLatLon0.09_PT044H.grib2 2026-04-28 14:53 340K
20260428T12Z_MSC_RDPS_WindV_IsbL-0225_RLatLon0.09_PT044H.grib2 2026-04-28 14:53 346K
20260428T12Z_MSC_RDPS_WindV_IsbL-0250_RLatLon0.09_PT044H.grib2 2026-04-28 14:53 347K
20260428T12Z_MSC_RDPS_WindV_IsbL-0275_RLatLon0.09_PT044H.grib2 2026-04-28 14:53 361K
20260428T12Z_MSC_RDPS_WindV_IsbL-0300_RLatLon0.09_PT044H.grib2 2026-04-28 14:53 356K
20260428T12Z_MSC_RDPS_WindV_IsbL-0350_RLatLon0.09_PT044H.grib2 2026-04-28 14:53 367K
20260428T12Z_MSC_RDPS_WindV_IsbL-0400_RLatLon0.09_PT044H.grib2 2026-04-28 14:53 365K
20260428T12Z_MSC_RDPS_WindV_IsbL-0450_RLatLon0.09_PT044H.grib2 2026-04-28 14:53 470K
20260428T12Z_MSC_RDPS_WindV_IsbL-0500_RLatLon0.09_PT044H.grib2 2026-04-28 14:53 471K
20260428T12Z_MSC_RDPS_WindV_IsbL-0550_RLatLon0.09_PT044H.grib2 2026-04-28 14:53 470K
20260428T12Z_MSC_RDPS_WindV_IsbL-0600_RLatLon0.09_PT044H.grib2 2026-04-28 14:53 478K
20260428T12Z_MSC_RDPS_WindV_IsbL-0650_RLatLon0.09_PT044H.grib2 2026-04-28 14:53 496K
20260428T12Z_MSC_RDPS_WindV_IsbL-0700_RLatLon0.09_PT044H.grib2 2026-04-28 14:53 502K
20260428T12Z_MSC_RDPS_WindV_IsbL-0750_RLatLon0.09_PT044H.grib2 2026-04-28 14:53 525K
20260428T12Z_MSC_RDPS_WindV_IsbL-0800_RLatLon0.09_PT044H.grib2 2026-04-28 14:53 559K
20260428T12Z_MSC_RDPS_WindV_IsbL-0850_RLatLon0.09_PT044H.grib2 2026-04-28 14:53 610K
20260428T12Z_MSC_RDPS_WindV_IsbL-0875_RLatLon0.09_PT044H.grib2 2026-04-28 14:53 629K
20260428T12Z_MSC_RDPS_WindV_IsbL-0900_RLatLon0.09_PT044H.grib2 2026-04-28 14:53 780K
20260428T12Z_MSC_RDPS_WindV_IsbL-0925_RLatLon0.09_PT044H.grib2 2026-04-28 14:53 792K
20260428T12Z_MSC_RDPS_WindV_IsbL-0950_RLatLon0.09_PT044H.grib2 2026-04-28 14:53 789K
20260428T12Z_MSC_RDPS_WindV_IsbL-0970_RLatLon0.09_PT044H.grib2 2026-04-28 14:53 836K
20260428T12Z_MSC_RDPS_WindV_IsbL-0985_RLatLon0.09_PT044H.grib2 2026-04-28 14:53 830K
20260428T12Z_MSC_RDPS_WindV_IsbL-1000_RLatLon0.09_PT044H.grib2 2026-04-28 14:53 822K
20260428T12Z_MSC_RDPS_WindV_IsbL-1015_RLatLon0.09_PT044H.grib2 2026-04-28 14:53 815K